Regional Weather Roundup
Issued by NWS Grand Forks, ND

Home | Current Version | Previous Version | Text Only | Print | Product List | Glossary On
Versions: 1 2 3 4 5 6 7 8 9 10 11 12 13 14 15 16 17 18 19 20 21 22 23 24 25 26 27 28 29 30 31 32 33 34 35 36 37 38 39 40 41 42 43 44 45 46 47 48 49 50
000
ASUS43 KFGF 300031
RWRFGF
PRAIRIE TO PINES  WEATHER ROUNDUP
NATIONAL WEATHER SERVICE EASTERN NORTH DAKOTA/GRAND FORKS ND
700 PM CDT FRI MAY 29 2015

 **SATELLITE DATA USED TO AUGMENT SKY COVER AT AUTOMATED STATIONS**
 *****  WEATHER ACROSS EASTERN NORTH DAKOTA  *****

CITY           SKY/WX    TMP DP  RH WIND       PRES   REMARKS
GRAND FORKS    MOSUNNY   54  35  48 N22G32    30.20R
6HR MIN TEMP:  47; 6HR MAX TEMP:  56;

GRAND FRKS AFB MOSUNNY   53  33  46 N22G28    30.21R
GRAND FRKS NWS   N/A     52 N/A N/A N20         N/A
DEVILS LAKE    SUNNY     54  28  37 N16G23    30.24R
6HR MIN TEMP:  48; 6HR MAX TEMP:  55;

FARGO          MOSUNNY   56  37  49 N22G32    30.15S
WAHPETON ARPT  MOCLDY    52  39  62 N18G28    30.13R
$$

 ***** WEATHER ACROSS CENTRAL AND WESTERN NORTH DAKOTA  *****

CITY           SKY/WX    TMP DP  RH WIND       PRES   REMARKS
BISMARCK       SUNNY     57  34  41 N13       30.26S
6HR MIN TEMP:  51; 6HR MAX TEMP:  58;

MINOT          SUNNY     56  31  38 NW8       30.27S
6HR MIN TEMP:  46; 6HR MAX TEMP:  57;

JAMESTOWN      MOSUNNY   56  36  47 N20       30.20R
6HR MIN TEMP:  51; 6HR MAX TEMP:  58;

MINOT AFB      SUNNY     58  33  38 N7        30.26S
GARRISON         N/A     57  34  41 N8        30.27S
WILLISTON      SUNNY     59  31  34 VRB3      30.28F
6HR MIN TEMP:  52; 6HR MAX TEMP:  61;

DICKINSON      SUNNY     56  35  45 NE10      30.26S
HETTINGER      SUNNY     55  36  48 NE7       30.28S
6HR MIN TEMP:  50; 6HR MAX TEMP:  56;

$$

 *****  OTHER AIRPORT OBSERVATIONS IN OUR AREA  *****

CITY           SKY/WX    TMP DP  RH WIND       PRES   REMARKS
WALHALLA         N/A     48  28  46 MISG      30.28R
GRAFTON AIRPOR FAIR      52  34  50 N18G25    30.24R
VALLEY CITY AR FAIR      54  36  50 NE17G24   30.20R
CANDO          FAIR      52  28  40 N14G22    30.28R
CAVALIER APRT  FAIR      50  32  50 N18G28    30.25R
GWINNER        NOT AVBL
SHEYENNE NWR     N/A     54  39  57 N9        29.95S
ROLLA          FAIR      48  30  49 NE15      30.29R
 ***** THE ABOVE OBSERVATIONS ARE NON NWS ARE NOT QUALITY
       CONTROLLED AND MAY MIS-REPORT RAIN FOR SNOW...
$$

  *****  WEATHER ACROSS NORTHERN MINNESOTA  *****

CITY           SKY/WX    TMP DP  RH WIND       PRES   REMARKS
FLAG ISLAND    MOSUNNY   50  36  57 N22G29    30.16R
WARROAD        SUNNY     52  36  54 N15       30.18R
ROSEAU         SUNNY     52  34  50 N17       30.18R
HALLOCK        SUNNY     52  28  40 N24       30.23R
THF RVR FALLS  SUNNY     52  34  50 N18       30.19R
6HR MIN TEMP:  46; 6HR MAX TEMP:  54;

BAUDETTE       NOT AVBL
WASKISH        MOSUNNY   54  39  58 N9G22     30.13R
CROOKSTON      MOSUNNY   54  36  50 N23       30.20R
STEPHEN NDAWN    N/A     52  36  54 VRB20       N/A
GREENBUSH NDAW   N/A     50  36  57 N18         N/A
$$
  *****  WEATHER ACROSS CENTRAL AND WEST MINNESOTA  *****

CITY           SKY/WX    TMP DP  RH WIND       PRES   REMARKS
FOSSTON        MOSUNNY   54  39  58 N21       30.15R
BEMIDJI        PTSUNNY   54  39  55 N16       30.11R
PARK RAPIDS    PTSUNNY   57  39  51 N14G23    30.07S
6HR MIN TEMP:  50; 6HR MAX TEMP:  57;

ELBOW LAKE     FAIR      51  44  74 N16G25    30.09R
6HR MIN TEMP:  50; 6HR MAX TEMP:  52;

WADENA         CLOUDY    54  43  66 N13       30.06S
DETROIT LAKES  PTSUNNY   54  41  62 N14G24    30.13R
MOORHEAD       PTSUNNY   54  41  62 N24       30.16R
FERGUS FALLS   CLOUDY    55  43  62 N12G24    30.11S
MORRIS MN      CLOUDY    52  45  76 N21G30    30.07R
STAPLES        CLOUDY    54  43  66 N9        30.06S
$$
  *****  WEATHER ELSEWHERE ACROSS MINNESOTA  *****

CITY           SKY/WX    TMP DP  RH WIND       PRES   REMARKS
DULUTH         CLOUDY    53  45  74 N17G26    30.00R
6HR MIN TEMP:  53; 6HR MAX TEMP:  64; 6HR PCP: TRACE;

INTRNTL FALLS  CLOUDY    51  39  63 N13       30.11R
6HR MIN TEMP:  50; 6HR MAX TEMP:  55;

ELY            NOT AVBL
CLOQUET        CLOUDY    54  45  71 NW12G20   30.01R
WHEATON        CLOUDY    50  43  76 N17       30.14R
BRAINERD       CLOUDY    53  44  71 N13       30.04S
6HR MIN TEMP:  51; 6HR MAX TEMP:  57; 6HR PCP: TRACE;

HIBBING        CLOUDY    54  43  66 N15       30.04R
6HR MIN TEMP:  51; 6HR MAX TEMP:  55; 6HR PCP: TRACE;

ALEXANDRIA     CLOUDY    54  45  71 N14       30.06R
6HR MIN TEMP:  52; 6HR MAX TEMP:  54; 6HR PCP:  0.01;

SAINT CLOUD    CLOUDY    53  49  86 N14G20    30.01R
6HR MIN TEMP:  53; 6HR MAX TEMP:  62; 6HR PCP:  0.17;

MINNEAPOLIS    LGT RAIN  60  58  92 N14G24    29.94R
6HR MIN TEMP:  62; 6HR MAX TEMP:  71; 6HR PCP:  0.18;

$$

  *****  WEATHER ACROSS SOUTH DAKOTA  *****

CITY           SKY/WX    TMP DP  RH WIND       PRES   REMARKS
SIOUX FALLS    CLOUDY    52  47  83 N16G22    30.07R
6HR MIN TEMP:  51; 6HR MAX TEMP:  60; 6HR PCP:  0.23;

BROOKINGS      CLOUDY    48  43  81 N20G26    30.10R
WATERTOWN      PTSUNNY   49  40  71 N22G29    30.12R
6HR MIN TEMP:  48; 6HR MAX TEMP:  50; 6HR PCP:  0.02;

HURON          CLOUDY    53  43  68 N22G28    30.15R
                                      6HR PCP: TRACE;

SISSETON         N/A     51  43  74 N26       30.12S
ABERDEEN       CLOUDY    55  40  56 N16       30.17R
6HR MIN TEMP:  50; 6HR MAX TEMP:  56;

MITCHELL       CLOUDY    52  45  77 N22G32    30.15R
PIERRE         MOSUNNY   55  40  56 N18G28    30.21S
6HR MIN TEMP:  50; 6HR MAX TEMP:  56;

MOBRIDGE       PTSUNNY   56  37  49 N13       30.22S
RAPID CITY     PTSUNNY   57  41  55 N14       30.26F
6HR MIN TEMP:  46; 6HR MAX TEMP:  58; 6HR PCP: TRACE;

$$

  *****  SOME WEATHER IN NEARBY STATES *****

CITY           SKY/WX    TMP DP  RH WIND       PRES   REMARKS
GLASGOW MT     SUNNY     60  31  33 E5        30.25F
6HR MIN TEMP:  52; 6HR MAX TEMP:  62;

GREAT FALLS MT MOSUNNY   67  50  54 E12       30.09F
6HR MIN TEMP:  54; 6HR MAX TEMP:  68;

CHEYENNE WY    LGT RAIN  48  45  89 NE12      30.31R FOG
6HR MIN TEMP:  49; 6HR MAX TEMP:  59; 6HR PCP: TRACE;

SCOTTSBLUFF NE LGT RAIN  52  48  86 N14       30.27S
6HR MIN TEMP:  50; 6HR MAX TEMP:  54; 6HR PCP:  0.57;

OMAHA NE       TSTM      75  62  64 SW13      29.88R
6HR MIN TEMP:  74; 6HR MAX TEMP:  79;

DES MOINES IA  CLOUDY    74  64  71 W14       29.88S
6HR MIN TEMP:  72; 6HR MAX TEMP:  76; 6HR PCP: TRACE;

DAVENPORT IA   PTSUNNY   77  61  57 W13       29.91S
6HR MIN TEMP:  76; 6HR MAX TEMP:  82;

CHICAGO IL     PTSUNNY   80  62  54 SW10      29.90R
6HR MIN TEMP:  76; 6HR MAX TEMP:  81; 6HR PCP:  0.03;

EAU CLAIRE WI  CLOUDY    65  62  90 N7        29.89R
6HR MIN TEMP:  65; 6HR MAX TEMP:  72; 6HR PCP:  0.16;

LA CROSSE WI   CLOUDY    69  65  86 N7        29.86F
6HR MIN TEMP:  67; 6HR MAX TEMP:  79; 6HR PCP:  1.37;

$$

  *****  SOME NATIONAL WEATHER *****

CITY           SKY/WX    TMP DP  RH WIND       PRES   REMARKS
LA GUARDIA NY  MOCLDY    72  56  57 SE13      30.22F
6HR MIN TEMP:  72; 6HR MAX TEMP:  82;

RALEIGH NC     PTCLDY    81  55  40 SE5       30.17S
6HR MIN TEMP:  81; 6HR MAX TEMP:  87;

ATLANTA GA     PTCLDY    81  61  50 SE7       30.14R
6HR MIN TEMP:  81; 6HR MAX TEMP:  84;

NEW ORLEANS LA PTSUNNY   81  69  67 S8        30.04R
6HR MIN TEMP:  81; 6HR MAX TEMP:  86;

OKLAHOMA CITY  PTSUNNY   78  62  57 NE5       29.93R
6HR MIN TEMP:  72; 6HR MAX TEMP:  79;

ALBUQUERQUE NM PTSUNNY   80  30  16 NW7       30.10F
6HR MIN TEMP:  74; 6HR MAX TEMP:  81; 6HR PCP: TRACE;

SALT LAKE CITY MOSUNNY   75  41  29 N9        30.11F
6HR MIN TEMP:  69; 6HR MAX TEMP:  76;

LOS ANGELES CA MOSUNNY   65  57  75 SW13      29.90F
6HR MIN TEMP:  65; 6HR MAX TEMP:  69;



USA.gov is the U.S. government's official web portal to all federal, state and local government web resources and services.